Location: Aufkirchen
(47.9603°N, 11.3653°E)
Time: 06:36:14
(UTC+01:00)

Transit 4A - Pass Details

Date: 26 November 2020
Orbit: 864 x 980 km, 66.8° (Epoch: 25 January)

Event Time Altitude Azimuth Distance (km) Brightness Sun altitude
Rises 11:58:23 0° 282° (WNW) 3,669 10.9 21.0°
Reaches altitude 10° 12:02:00 10° 302° (WNW) 2,733 10.1 21.0°
Maximum altitude 12:06:02 17° 341° (NNW) 2,263 9.5 21.0°
Drops below altitude 10° 12:10:06 10° 21° (NNE) 2,739 9.9 20.9°
Sets 12:13:44 0° 41° (NE) 3,681 10.6 20.9°
